User: anonymous   Login
Location: Newark
(33.1119°N, 7.4058°W)
Time: 20:33:23
(UTC+00:00)
Language:

Hubble Space Telescope - Orbit

View from above orbital plane
View from above orbital plane
View from above satellite
View from above satellite

Ground track
Ground track

The orbit data is extracted from the following two-line orbital elements,

1 20580U 90037B   19345.50816498  .00000354  00000-0  10528-4 0  9999
2 20580  28.4684 129.2891 0002566 215.0423 199.7890 15.09310307427473
Epoch (UTC): 11 December 2019 12:11:45
Eccentricity: 0.0002566
inclination: 28.4684°
perigee height: 536 km
apogee height: 540 km
right ascension of ascending node: 129.2891°
argument of perigee: 215.0423°
revolutions per day: 15.09310307
mean anomaly at epoch: 199.7890°
orbit number at epoch: 42747

The dashed part of the orbit path shows where the satellite is in the earth's shadow,  

DLR